| time (UTC) | temp F | wind direction | speed knots | gust knots | rain 1hr in | rain 24hr in | rain mn in | humidity % | barometer mb |
| 20260503220504 | 57 | 311 | 7.8 | 26.1 | 0.17 | 0.57 | 0.52 | 94 | 1011.4 |
| 20260503220003 | 57 | 314 | 7.0 | 15.6 | 0.17 | 0.56 | 0.51 | 93 | 1011.6 |
| 20260503215503 | 57 | 309 | 7.0 | 13.0 | 0.16 | 0.55 | 0.50 | 94 | 1011.5 |
| 20260503215003 | 57 | 296 | 7.8 | 11.3 | 0.12 | 0.50 | 0.46 | 94 | 1011.4 |
| 20260503214504 | 57 | 293 | 9.6 | 14.8 | 0.08 | 0.46 | 0.42 | 94 | 1011.4 |
| 20260503214024 | 57 | 308 | 9.6 | 17.4 | 0.07 | 0.46 | 0.41 | 93 | 1011.4 |
| 20260503213504 | 57 | 314 | 9.6 | 17.4 | 0.06 | 0.44 | 0.39 | 93 | 1011.2 |
| 20260503213004 | 57 | 310 | 7.0 | 16.5 | 0.06 | 0.44 | 0.39 | 93 | 1011.3 |
| 20260503212504 | 57 | 309 | 6.1 | 16.5 | 0.06 | 0.44 | 0.39 | 93 | 1011.2 |
| 20260503212004 | 56 | 301 | 6.1 | 12.2 | 0.06 | 0.44 | 0.39 | 93 | 1011.3 |
| 20260503211504 | 56 | 300 | 7.0 | 9.6 | 0.06 | 0.43 | 0.39 | 93 | 1011.3 |
| 20260503211003 | 56 | 313 | 7.0 | 11.3 | 0.07 | 0.41 | 0.36 | 93 | 1011.2 |
| 20260503210525 | 56 | 319 | 7.0 | 12.2 | 0.10 | 0.40 | 0.35 | 93 | 1011.2 |
| 20260503210004 | 56 | 312 | 7.8 | 12.2 | 0.10 | 0.39 | 0.35 | 93 | 1011.2 |
| 20260503205504 | 56 | 311 | 7.8 | 13.0 | 0.11 | 0.39 | 0.35 | 93 | 1011.2 |
| 20260503205003 | 56 | 312 | 7.8 | 13.0 | 0.17 | 0.39 | 0.34 | 93 | 1011.0 |
| 20260503204503 | 56 | 312 | 7.0 | 15.6 | 0.17 | 0.39 | 0.34 | 93 | 1011.0 |
| 20260503204003 | 56 | 312 | 7.0 | 15.6 | 0.18 | 0.39 | 0.34 | 93 | 1011.0 |
| 20260503203503 | 56 | 311 | 6.1 | 11.3 | 0.19 | 0.39 | 0.34 | 93 | 1011.0 |
| 20260503203003 | 56 | 303 | 6.1 | 9.6 | 0.20 | 0.39 | 0.34 | 93 | 1010.9 |
| 20260503202504 | 56 | 296 | 5.2 | 9.6 | 0.20 | 0.39 | 0.34 | 93 | 1010.8 |
| 20260503202004 | 56 | 297 | 5.2 | 8.7 | 0.26 | 0.39 | 0.34 | 93 | 1010.8 |
| 20260503201503 | 56 | 296 | 6.1 | 8.7 | 0.25 | 0.38 | 0.33 | 92 | 1010.7 |
| 20260503201003 | 56 | 296 | 7.0 | 11.3 | 0.21 | 0.34 | 0.29 | 92 | 1010.7 |
| 20260503200504 | 56 | 309 | 6.1 | 13.0 | 0.17 | 0.30 | 0.25 | 92 | 1010.5 |
| 20260503200003 | 56 | 318 | 6.1 | 13.0 | 0.17 | 0.29 | 0.24 | 92 | 1010.4 |
| 20260503195503 | 56 | 314 | 7.0 | 13.0 | 0.17 | 0.28 | 0.24 | 92 | 1010.3 |
| 20260503195003 | 56 | 307 | 7.8 | 13.0 | 0.09 | 0.21 | 0.17 | 92 | 1010.5 |
| 20260503194525 | 56 | 304 | 7.8 | 13.0 | 0.09 | 0.21 | 0.17 | 92 | 1010.6 |
| 20260503194003 | 56 | 304 | 7.0 | 15.6 | 0.09 | 0.20 | 0.16 | 92 | 1010.6 |
| 20260503193503 | 56 | 305 | 7.0 | 15.6 | 0.10 | 0.20 | 0.15 | 92 | 1010.5 |
| 20260503193004 | 56 | 309 | 7.8 | 11.3 | 0.09 | 0.19 | 0.14 | 92 | 1010.5 |
| 20260503192503 | 56 | 312 | 8.7 | 13.0 | 0.09 | 0.18 | 0.13 | 91 | 1010.4 |
| 20260503192003 | 56 | 315 | 8.7 | 13.0 | 0.03 | 0.13 | 0.08 | 91 | 1010.3 |
| 20260503191503 | 56 | 316 | 8.7 | 13.0 | 0.03 | 0.13 | 0.08 | 91 | 1010.3 |
| 20260503191004 | 56 | 320 | 8.7 | 15.6 | 0.03 | 0.13 | 0.08 | 91 | 1010.4 |
| 20260503190504 | 56 | 327 | 7.8 | 15.6 | 0.03 | 0.13 | 0.08 | 91 | 1010.3 |
| 20260503190003 | 56 | 324 | 7.8 | 14.8 | 0.02 | 0.12 | 0.07 | 91 | 1010.3 |
| 20260503185503 | 56 | 317 | 7.8 | 13.0 | 0.02 | 0.12 | 0.07 | 91 | 1010.3 |
| 20260503185024 | 56 | 311 | 7.8 | 12.2 | 0.03 | 0.12 | 0.07 | 91 | 1010.4 |
| 20260503184503 | 56 | 318 | 8.7 | 14.8 | 0.03 | 0.12 | 0.07 | 91 | 1010.3 |
| 20260503184025 | 56 | 324 | 9.6 | 14.8 | 0.02 | 0.11 | 0.06 | 91 | 1010.3 |
| 20260503183504 | 56 | 325 | 9.6 | 15.6 | 0.01 | 0.09 | 0.05 | 91 | 1010.3 |
| 20260503183004 | 56 | 325 | 8.7 | 15.6 | 0.02 | 0.09 | 0.05 | 91 | 1010.3 |
| 20260503182503 | 55 | 326 | 8.7 | 13.0 | 0.02 | 0.09 | 0.05 | 91 | 1010.3 |
| 20260503182004 | 55 | 328 | 8.7 | 13.0 | 0.02 | 0.09 | 0.05 | 91 | 1010.3 |
| 20260503181505 | 55 | 329 | 7.8 | 13.0 | 0.02 | 0.09 | 0.05 | 91 | 1010.3 |
| 20260503181004 | 55 | 330 | 7.8 | 13.0 | 0.02 | 0.09 | 0.05 | 91 | 1010.3 |
| 20260503180504 | 55 | 329 | 7.0 | 13.0 | 0.02 | 0.09 | 0.05 | 91 | 1010.2 |
| 20260503180004 | 55 | 326 | 7.0 | 11.3 | 0.05 | 0.09 | 0.05 | 91 | 1010.3 |
| 20260503175503 | 55 | 317 | 7.0 | 11.3 | 0.05 | 0.09 | 0.05 | 91 | 1010.4 |
| 20260503175003 | 55 | 317 | 7.0 | 9.6 | 0.04 | 0.09 | 0.04 | 90 | 1010.5 |
| 20260503174503 | 55 | 320 | 7.0 | 11.3 | 0.04 | 0.09 | 0.04 | 90 | 1010.4 |
| 20260503174004 | 56 | 315 | 6.1 | 13.0 | 0.04 | 0.09 | 0.04 | 90 | 1010.4 |
| 20260503173503 | 55 | 311 | 6.1 | 13.0 | 0.04 | 0.09 | 0.04 | 90 | 1010.4 |
| 20260503173004 | 55 | 313 | 7.0 | 11.3 | 0.03 | 0.08 | 0.03 | 90 | 1010.5 |
| 20260503172504 | 55 | 314 | 7.0 | 11.3 | 0.03 | 0.08 | 0.03 | 90 | 1010.5 |
| 20260503172003 | 55 | 313 | 6.1 | 11.3 | 0.03 | 0.08 | 0.03 | 89 | 1010.5 |
| 20260503171504 | 55 | 311 | 7.0 | 9.6 | 0.02 | 0.07 | 0.02 | 89 | 1010.5 |
| 20260503171004 | 55 | 308 | 7.0 | 9.6 | 0.02 | 0.07 | 0.02 | 89 | 1010.6 |
| 20260503170504 | 56 | 315 | 8.7 | 14.8 | 0.02 | 0.07 | 0.02 | 88 | 1010.6 |
| 20260503151004 | 56 | 340 | 7.8 | 14.8 | 0.00 | 0.06 | 0.00 | 88 | 1010.9 |
| 20260503150504 | 56 | 341 | 8.7 | 13.0 | 0.00 | 0.06 | 0.00 | 88 | 1011.0 |
| 20260503131025 | 56 | 307 | 8.7 | 17.4 | 0.00 | 0.06 | 0.06 | 88 | 1011.7 |
| 20260503130504 | 56 | 317 | 7.8 | 17.4 | 0.00 | 0.06 | 0.06 | 89 | 1011.8 |
| 20260503110503 | 58 | 311 | 9.6 | 16.5 | 0.01 | 0.04 | 0.04 | 82 | 1011.2 |
| 20260503090504 | 60 | 285 | 11.3 | 20.9 | 0.00 | 0.03 | 0.03 | 77 | 1010.6 |
| 20260503081503 | 61 | 301 | 12.2 | 20.9 | 0.00 | 0.03 | 0.03 | 73 | 1010.1 |
| 20260503081003 | 61 | 302 | 12.2 | 20.0 | 0.00 | 0.03 | 0.03 | 74 | 1010.0 |
| 20260503080524 | 61 | 300 | 12.2 | 20.9 | 0.00 | 0.03 | 0.03 | 74 | 1010.0 |
| 20260503072503 | 61 | 296 | 11.3 | 20.9 | 0.00 | 0.03 | 0.03 | 75 | 1010.0 |
| 20260503072004 | 61 | 297 | 10.4 | 20.9 | 0.00 | 0.03 | 0.03 | 75 | 1009.9 |
| 20260503071504 | 61 | 300 | 8.7 | 20.0 | 0.02 | 0.03 | 0.03 | 75 | 1009.9 |
| 20260503071003 | 61 | 308 | 8.7 | 16.5 | 0.02 | 0.04 | 0.03 | 76 | 1009.9 |
| 20260503070503 | 60 | 311 | 10.4 | 15.6 | 0.02 | 0.04 | 0.03 | 78 | 1010.0 |
| 20260503055004 | 66 | 297 | 15.6 | 28.7 | 0.00 | 0.14 | 0.02 | 58 | 1009.4 |
| 20260503054504 | 66 | 302 | 14.8 | 28.7 | 0.00 | 0.14 | 0.02 | 56 | 1009.3 |
| 20260503054004 | 67 | 296 | 15.6 | 25.2 | 0.00 | 0.14 | 0.02 | 56 | 1009.3 |
| 20260503053503 | 66 | 294 | 16.5 | 25.2 | 0.00 | 0.14 | 0.02 | 58 | 1009.4 |
| 20260503053003 | 66 | 301 | 18.2 | 29.5 | 0.00 | 0.14 | 0.02 | 56 | 1009.4 |
| 20260503052503 | 66 | 304 | 18.2 | 36.5 | 0.00 | 0.14 | 0.02 | 54 | 1009.4 |
| 20260503052003 | 67 | 295 | 17.4 | 36.5 | 0.00 | 0.14 | 0.02 | 55 | 1009.5 |
| 20260503051504 | 67 | 287 | 17.4 | 29.5 | 0.00 | 0.14 | 0.02 | 56 | 1009.5 |
| 20260503051004 | 67 | 288 | 16.5 | 29.5 | 0.00 | 0.14 | 0.02 | 56 | 1009.5 |
| 20260503050504 | 66 | 296 | 16.5 | 27.8 | 0.00 | 0.15 | 0.02 | 58 | 1009.5 |
| 20260503050005 | 65 | 298 | 16.5 | 27.8 | 0.00 | 0.15 | 0.02 | 59 | 1009.5 |
| 20260503045504 | 65 | 298 | 17.4 | 27.8 | 0.00 | 0.16 | 0.02 | 59 | 1009.5 |
| 20260503045004 | 66 | 304 | 17.4 | 28.7 | 0.00 | 0.16 | 0.02 | 58 | 1009.4 |
| 20260503044504 | 66 | 303 | 16.5 | 28.7 | 0.00 | 0.17 | 0.02 | 58 | 1009.4 |
| 20260503044004 | 66 | 290 | 17.4 | 32.2 | 0.00 | 0.17 | 0.02 | 57 | 1009.4 |
| 20260503043504 | 66 | 283 | 18.2 | 32.2 | 0.00 | 0.19 | 0.02 | 55 | 1009.4 |
| 20260503043004 | 66 | 289 | 19.1 | 32.2 | 0.00 | 0.20 | 0.02 | 57 | 1009.4 |
| 20260503042504 | 66 | 288 | 20.9 | 32.2 | 0.00 | 0.20 | 0.02 | 57 | 1009.5 |
| 20260503042004 | 66 | 286 | 21.7 | 35.6 | 0.00 | 0.20 | 0.02 | 58 | 1009.5 |
| 20260503041504 | 65 | 290 | 19.1 | 35.6 | 0.00 | 0.20 | 0.02 | 59 | 1009.5 |
| 20260503041004 | 66 | 295 | 17.4 | 33.9 | 0.00 | 0.21 | 0.02 | 56 | 1009.7 |
| 20260503040505 | 66 | 292 | 17.4 | 26.1 | 0.00 | 0.21 | 0.02 | 58 | 1009.6 |
| 20260503040025 | 65 | 287 | 17.4 | 29.5 | 0.00 | 0.21 | 0.02 | 59 | 1009.6 |
| 20260503035506 | 65 | 291 | 18.2 | 29.5 | 0.00 | 0.21 | 0.02 | 59 | 1009.7 |
| 20260503035004 | 65 | 291 | 19.1 | 29.5 | 0.00 | 0.21 | 0.02 | 60 | 1009.7 |
| 20260503034504 | 65 | 292 | 19.1 | 29.5 | 0.00 | 0.21 | 0.02 | 57 | 1009.8 |
| 20260503034004 | 66 | 296 | 18.2 | 27.8 | 0.00 | 0.22 | 0.02 | 57 | 1009.9 |
| 20260503033504 | 64 | 291 | 15.6 | 31.3 | 0.00 | 0.23 | 0.02 | 60 | 1009.8 |
| 20260503033004 | 64 | 291 | 14.8 | 31.3 | 0.00 | 0.24 | 0.02 | 62 | 1009.8 |
| 20260503032525 | 64 | 296 | 15.6 | 25.2 | 0.00 | 0.24 | 0.02 | 67 | 1009.9 |
| 20260503032025 | 63 | 305 | 16.5 | 26.1 | 0.00 | 0.24 | 0.02 | 69 | 1010.1 |
| 20260503031504 | 62 | 312 | 14.8 | 26.1 | 0.00 | 0.25 | 0.02 | 69 | 1010.1 |
| 20260503031004 | 63 | 310 | 13.9 | 25.2 | 0.00 | 0.26 | 0.02 | 68 | 1010.0 |
| 20260503030504 | 63 | 308 | 14.8 | 25.2 | 0.00 | 0.26 | 0.02 | 68 | 1009.9 |
| 20260503030025 | 63 | 311 | 14.8 | 25.2 | 0.00 | 0.26 | 0.02 | 67 | 1010.1 |
| 20260503025525 | 63 | 306 | 15.6 | 26.1 | 0.00 | 0.26 | 0.02 | 67 | 1010.2 |
| 20260503025004 | 63 | 303 | 16.5 | 29.5 | 0.00 | 0.26 | 0.02 | 67 | 1010.2 |
| 20260503024504 | 63 | 304 | 16.5 | 32.2 | 0.00 | 0.26 | 0.02 | 66 | 1010.2 |
| 20260503024004 | 63 | 299 | 15.6 | 32.2 | 0.00 | 0.26 | 0.02 | 65 | 1010.2 |
| 20260503023504 | 63 | 299 | 15.6 | 25.2 | 0.00 | 0.26 | 0.02 | 66 | 1010.3 |
| 20260503023004 | 62 | 301 | 16.5 | 25.2 | 0.00 | 0.26 | 0.02 | 67 | 1010.3 |
| 20260503022504 | 63 | 298 | 16.5 | 27.8 | 0.00 | 0.26 | 0.02 | 66 | 1010.3 |
| 20260503022004 | 63 | 297 | 15.6 | 27.8 | 0.00 | 0.26 | 0.02 | 65 | 1010.4 |
| 20260503021504 | 63 | 299 | 14.8 | 27.8 | 0.00 | 0.26 | 0.02 | 65 | 1010.5 |
| 20260503021004 | 62 | 302 | 14.8 | 27.8 | 0.00 | 0.26 | 0.02 | 65 | 1010.4 |
| 20260503020504 | 62 | 299 | 14.8 | 27.8 | 0.00 | 0.26 | 0.02 | 65 | 1010.5 |
| 20260503020004 | 62 | 303 | 14.8 | 27.8 | 0.00 | 0.26 | 0.02 | 66 | 1010.5 |
| 20260503015504 | 62 | 313 | 15.6 | 25.2 | 0.00 | 0.26 | 0.02 | 65 | 1010.5 |
| 20260503015004 | 62 | 312 | 16.5 | 27.8 | 0.00 | 0.26 | 0.02 | 65 | 1010.5 |
| 20260503014504 | 62 | 304 | 17.4 | 31.3 | 0.00 | 0.26 | 0.02 | 64 | 1010.5 |
| 20260503014004 | 63 | 301 | 17.4 | 31.3 | 0.00 | 0.26 | 0.02 | 63 | 1010.5 |
| 20260503013504 | 63 | 299 | 17.4 | 31.3 | 0.00 | 0.26 | 0.02 | 64 | 1010.5 |
| 20260503013004 | 62 | 301 | 17.4 | 31.3 | 0.00 | 0.26 | 0.02 | 65 | 1010.5 |
| 20260503012504 | 62 | 307 | 16.5 | 28.7 | 0.00 | 0.26 | 0.02 | 66 | 1010.4 |
| 20260503012004 | 62 | 309 | 15.6 | 28.7 | 0.00 | 0.26 | 0.02 | 68 | 1010.5 |
| 20260503011504 | 62 | 313 | 15.6 | 28.7 | 0.00 | 0.26 | 0.02 | 67 | 1010.5 |
| 20260503011025 | 62 | 310 | 14.8 | 27.8 | 0.00 | 0.26 | 0.02 | 69 | 1010.5 |
| 20260503010504 | 61 | 311 | 14.8 | 27.8 | 0.00 | 0.26 | 0.02 | 69 | 1010.6 |
| 20260503010004 | 61 | 309 | 15.6 | 27.8 | 0.00 | 0.26 | 0.02 | 69 | 1010.6 |
| 20260503005504 | 61 | 308 | 16.5 | 27.8 | 0.01 | 0.26 | 0.02 | 70 | 1010.7 |
| 20260503005004 | 61 | 310 | 16.5 | 27.8 | 0.01 | 0.26 | 0.02 | 69 | 1010.7 |
| 20260503004504 | 61 | 312 | 15.6 | 27.8 | 0.01 | 0.26 | 0.02 | 69 | 1010.7 |
| 20260503004004 | 62 | 309 | 15.6 | 31.3 | 0.01 | 0.26 | 0.02 | 69 | 1010.8 |
| 20260503003504 | 61 | 304 | 15.6 | 31.3 | 0.01 | 0.26 | 0.02 | 70 | 1010.7 |
| 20260503003004 | 61 | 306 | 14.8 | 27.8 | 0.01 | 0.26 | 0.02 | 71 | 1010.8 |
| 20260503002504 | 61 | 305 | 14.8 | 27.8 | 0.01 | 0.26 | 0.02 | 71 | 1010.8 |
| 20260503002004 | 60 | 301 | 14.8 | 25.2 | 0.01 | 0.26 | 0.02 | 72 | 1010.8 |
| 20260503001504 | 60 | 303 | 13.9 | 25.2 | 0.01 | 0.26 | 0.02 | 73 | 1010.9 |
| 20260503001025 | 60 | 308 | 13.9 | 23.5 | 0.01 | 0.26 | 0.02 | 74 | 1010.8 |
| 20260503000525 | 60 | 313 | 13.9 | 23.5 | 0.01 | 0.26 | 0.02 | 74 | 1010.9 |
| 20260503000025 | 59 | 318 | 13.9 | 23.5 | 0.01 | 0.26 | 0.02 | 75 | 1010.9 |
| 20260502235525 | 59 | 319 | 13.9 | 23.5 | 0.00 | 0.25 | 0.01 | 76 | 1010.9 |
| 20260502235025 | 59 | 324 | 13.9 | 25.2 | 0.00 | 0.25 | 0.01 | 77 | 1011.0 |
| 20260502234504 | 58 | 325 | 12.2 | 25.2 | 0.00 | 0.25 | 0.01 | 77 | 1010.9 |
| 20260502234004 | 58 | 324 | 13.0 | 21.7 | 0.00 | 0.25 | 0.01 | 77 | 1011.0 |
| 20260502233504 | 58 | 321 | 12.2 | 24.3 | 0.00 | 0.25 | 0.01 | 78 | 1010.9 |
| 20260502233004 | 58 | 318 | 12.2 | 24.3 | 0.00 | 0.25 | 0.01 | 78 | 1010.9 |
| 20260502232503 | 57 | 318 | 11.3 | 21.7 | 0.00 | 0.25 | 0.01 | 79 | 1010.9 |
| 20260502232004 | 57 | 323 | 12.2 | 21.7 | 0.00 | 0.25 | 0.01 | 79 | 1010.8 |
| 20260502231504 | 57 | 323 | 12.2 | 21.7 | 0.00 | 0.25 | 0.01 | 79 | 1010.8 |
| 20260502231003 | 57 | 324 | 12.2 | 23.5 | 0.00 | 0.26 | 0.01 | 79 | 1010.8 |
| 20260502230504 | 57 | 321 | 11.3 | 23.5 | 0.00 | 0.26 | 0.01 | 80 | 1010.9 |
| 20260502230004 | 56 | 319 | 10.4 | 20.0 | 0.00 | 0.27 | 0.01 | 80 | 1011.0 |
| 20260502225504 | 56 | 327 | 10.4 | 20.0 | 0.00 | 0.27 | 0.01 | 80 | 1010.9 |
| 20260502225004 | 56 | 330 | 9.6 | 16.5 | 0.00 | 0.27 | 0.01 | 82 | 1010.9 |
| 20260502224504 | 56 | 332 | 9.6 | 16.5 | 0.00 | 0.27 | 0.01 | 82 | 1010.9 |
| 20260502224004 | 56 | 335 | 10.4 | 15.6 | 0.00 | 0.27 | 0.01 | 83 | 1010.9 |
| 20260502223504 | 55 | 339 | 10.4 | 15.6 | 0.00 | 0.27 | 0.01 | 83 | 1010.9 |
| 20260502223004 | 55 | 344 | 10.4 | 16.5 | 0.00 | 0.27 | 0.01 | 83 | 1010.9 |
| 20260502222504 | 55 | 347 | 10.4 | 16.5 | 0.00 | 0.27 | 0.01 | 84 | 1010.9 |
| 20260502222004 | 55 | 350 | 9.6 | 15.6 | 0.00 | 0.27 | 0.01 | 84 | 1010.8 |
| 20260502221504 | 55 | 351 | 9.6 | 15.6 | 0.00 | 0.27 | 0.01 | 84 | 1010.8 |
| 20260502221004 | 55 | 350 | 9.6 | 14.8 | 0.00 | 0.27 | 0.01 | 84 | 1010.8 |